"Pseudo-MPEC" for CALV2L2

Created 2024 May 17 11:22:06 UT using Find_Orb

Click here for an explanation of pseudo-MPECs

 
 Astrometry: 
     CALV2L2*1C2024 05 15.21133912 41 21.260+17 58 19.49   ~5F5b 21.00GVNEOCPG96
     CALV2L2 1C2024 05 15.21701312 41 19.018+17 57 18.14   ~5F5b 20.84GVNEOCPG96
     CALV2L2 1C2024 05 15.22268712 41 16.955+17 56 17.16   ~5F5b 21.32GVNEOCPG96
     CALV2L2 KC2024 05 15.29880412 40 48.529+17 42 22.93   ~5F7q 21.48GVNEOCPI52
     CALV2L2 KC2024 05 15.30192212 40 47.392+17 41 48.55   ~5F7q 21.26GVNEOCPI52
     CALV2L2 KC2024 05 15.30504312 40 46.272+17 41 13.42   ~5F7q       VNEOCPI52
     CALV2L2 KC2024 05 15.30816012 40 45.149+17 40 38.35   ~5F7q 20.82GVNEOCPI52
     CALV2L2 KC2024 05 16.00655112 36 56.155+15 19 10.38   ~5G1M 20.4 GVNEOCPJ95
     CALV2L2 KC2024 05 16.02647612 36 48.240+15 14 41.39   ~5G1M 20.3 GVNEOCPJ95
     CALV2L2 KB2024 05 16)E-_\[K1G2HjAstrometryUY^q1u/e69poAQY2x!aredacted;'FM45
     CALV2L2 KB2024 05 16n@)PkclicknQWpu2O3^;bmZherey,Qn(((:Z)Ua)J[2[+]QI[:-vM45
     CALV2L2 KB2024 05 16!VUaa$iC,]#i9rcy_=%tHbK(f`Bs6yNm.6.2YRr=U;0thsMMj-G8Y05
     CALV2L2 KB2024 05 16IL@53=/#p]J$MYfork-1=$@Y4nGaBNQ)uCexplanationR!=hh4wY05
     CALV2L2 KC2024 05 17.27741812 28 02.737+09 38 34.01   ~5H77 20.15GVNEOCPI52
     CALV2L2 KC2024 05 17.27858612 28 02.140+09 38 10.32   ~5H77 19.88GVNEOCPI52
     CALV2L2 KC2024 05 17.27975912 28 01.384+09 37 47.50   ~5H77 20.10GVNEOCPI52
     CALV2L2 KC2024 05 17.28094512 28 00.692+09 37 24.06   ~5H77 20.55GVNEOCPI52

Station data:
(G96) Mt. Lemmon Survey  (N32.442729 W110.788720)  US/Arizona.  Observer E.
   J. Christensen. 1.5-m reflector + 10K CCD.
(I52) Steward Observatory, Mt. Lemmon Station  (N32.442570 W110.788920)
   US/Arizona.  Observers T. A. Pruyne, B. M. Africano, E. J. Christensen, G.
   A. Farneth, D. C. Fuls, A. R. Gibbs, A. D. Grauer, H. Gröller, J. A.
   Johnson, R. A. Kowalski, S. M. Larson, G. J. Leonard, D. Rankin, R. L.
   Seaman, F. C. Shelly, K. W. Wierzchoś. 1.0-m prime focus + CCD.
(J95) Great Shefford  (N51.474969 W1.447003)  UK/England.  Observer P.
   Birtwhistle. 0.41-m f/6.3 Schmidt-Cassegrain + CCD.
(M45) Starhopper Observatory, Sfantu Gheorghe  (N45.865582 E25.768900)
   Romania.  Observer F. Ursache. 0.41-m f/7.5 reflector + CMO.
(Y05) SONEAR Wykrota-CEAMIG, Serra da Piedade  (S19.824251 W43.690000)
   Brazil.  Observer C. Jacques. 0.45-m f/2.9 reflector + CMO.

Orbital elements:  CALV2L2
   Perihelion 2024 Jun 3.37747 +/- 0.00232 TT =  9:03:33 (JD 2460464.87747)
Epoch 2024 May 17.0 TT = JDT 2460447.5   Earth MOID: 0.0122      AutoNEOCP
M 354.98371712 +/- 0.015            (J2000 ecliptic)
n   0.28866593 +/- 0.000846         Peri.  198.68025 +/- 0.0023
a   2.26745679 +/- 0.00443          Node    56.92205 +/- 0.0014
e   0.5561040 +/- 0.00087           Incl.   11.32280 +/- 0.011
P   3.41                   H 26.08  G  0.15   U  8.0
q 1.00651480 +/- 6.36e-6    Q 3.52839878 +/- 0.00887
From 17 observations 2024 May 15-17; mean residual 0".40
Residuals in arcseconds: 
240515 G96  .75+  .32+    240515 I52  .06+  .37-    240516 Y05  .42-  .40+    
240515 G96  .75-  .14-    240516 J95  .25-  .06+    240517 I52  .24-  .66+    
240515 G96  .31+  .07-    240516 J95  .31+  .04+    240517 I52  .82+  .05-    
240515 I52  .44-  .18-    240516 M45  .04-  .45-    240517 I52  .44-  .22+    
240515 I52  .39-  .18+    240516 M45  .38+  .61-    240517 I52  .65-  .14+    
240515 I52  .11-  .12-    240516 Y05  .39+  .52-    

Ephemerides (geocentric):
Date (UTC) HH   RA             Dec           delta  r     elong  mag " sig PA
---- --------  ------------   ------------  ------ ------ -----  --- --------
2024 05 17 11  12 26 41.405   +08 39 58.61  .03064 1.0293 125.2 20.5 .089  84
2024 05 17 12  12 26 19.786   +08 25 31.74  .03043 1.0292 125.3 20.5 .084  93
2024 05 17 13  12 25 57.909   +08 10 52.94  .03022 1.0291 125.3 20.5 .082 104
2024 05 17 14  12 25 35.770   +07 56 02.00  .03002 1.0290 125.3 20.5 .082 116
2024 05 17 15  12 25 13.363   +07 40 58.71  .02982 1.0289 125.3 20.5 .086 127
2024 05 17 16  12 24 50.683   +07 25 42.86  .02961 1.0288 125.3 20.5 .094 137
2024 05 17 17  12 24 27.727   +07 10 14.24  .02941 1.0287 125.3 20.4 .105 146
2024 05 17 18  12 24 04.488   +06 54 32.61  .02921 1.0286 125.3 20.4 .119 154
2024 05 17 19  12 23 40.960   +06 38 37.77  .02901 1.0285 125.3 20.4 .135 160
2024 05 17 20  12 23 17.139   +06 22 29.47  .02881 1.0284 125.3 20.4 .153 165
2024 05 17 21  12 22 53.020   +06 06 07.49  .02861 1.0283 125.3 20.4 .173 169
2024 05 17 22  12 22 28.595   +05 49 31.59  .02841 1.0281 125.3 20.4 .195 173
2024 05 17 23  12 22 03.860   +05 32 41.54  .02821 1.0280 125.3 20.3 .218 176
2024 05 18 00  12 21 38.808   +05 15 37.09  .02801 1.0279 125.3 20.3 .243 178
2024 05 18 01  12 21 13.433   +04 58 18.00  .02782 1.0278 125.4 20.3 .269   0
2024 05 18 02  12 20 47.729   +04 40 44.01  .02762 1.0277 125.4 20.3 .297   2
2024 05 18 03  12 20 21.689   +04 22 54.88  .02743 1.0276 125.4 20.3 .327   3
2024 05 18 04  12 19 55.307   +04 04 50.35  .02723 1.0275 125.4 20.3 .358   5
2024 05 18 05  12 19 28.576   +03 46 30.15  .02704 1.0274 125.4 20.3 .390   6
2024 05 18 06  12 19 01.488   +03 27 54.03  .02685 1.0273 125.4 20.2 .424   7
2024 05 18 07  12 18 34.037   +03 09 01.72  .02665 1.0272 125.4 20.2 .460   8
2024 05 18 08  12 18 06.216   +02 49 52.95  .02646 1.0271 125.4 20.2 .497   8
2024 05 18 09  12 17 38.016   +02 30 27.44  .02627 1.0270 125.4 20.2 .536   9
2024 05 18 10  12 17 09.430   +02 10 44.94  .02609 1.0269 125.4 20.2 .576  10
2024 05 18 11  12 16 40.449   +01 50 45.14  .02590 1.0268 125.4 20.2 .619  10
2024 05 18 12  12 16 11.067   +01 30 27.78  .02571 1.0267 125.4 20.1 .663  11
2024 05 18 13  12 15 41.274   +01 09 52.57  .02553 1.0266 125.4 20.1 .709  11
2024 05 18 14  12 15 11.061   +00 48 59.23  .02534 1.0265 125.3 20.1 .756  12
2024 05 18 15  12 14 40.421   +00 27 47.47  .02516 1.0264 125.3 20.1 .806  12
2024 05 18 16  12 14 09.343   +00 06 17.00  .02497 1.0262 125.3 20.1 .858  13
2024 05 18 17  12 13 37.818   -00 15 32.47  .02479 1.0261 125.3 20.1 .912  13
2024 05 18 18  12 13 05.837   -00 37 41.23  .02461 1.0260 125.3 20.1 .968  13
2024 05 18 19  12 12 33.390   -01 00 09.58  .02443 1.0259 125.3 20.0 1.03  14
2024 05 18 20  12 12 00.466   -01 22 57.81  .02426 1.0258 125.3 20.0 1.09  14
2024 05 18 21  12 11 27.056   -01 46 06.20  .02408 1.0257 125.3 20.0 1.15  14
2024 05 18 22  12 10 53.148   -02 09 35.07  .02390 1.0256 125.2 20.0 1.21  14
2024 05 18 23  12 10 18.732   -02 33 24.69  .02373 1.0255 125.2 20.0 1.28  15
2024 05 19 00  12 09 43.795   -02 57 35.37  .02356 1.0254 125.2 20.0 1.35  15
2024 05 19 01  12 09 08.327   -03 22 07.38  .02339 1.0253 125.2 19.9 1.42  15
2024 05 19 02  12 08 32.315   -03 47 01.04  .02322 1.0252 125.2 19.9 1.50  15
2024 05 19 03  12 07 55.747   -04 12 16.61  .02305 1.0251 125.1 19.9 1.58  15
2024 05 19 04  12 07 18.610   -04 37 54.39  .02288 1.0250 125.1 19.9 1.66  16
2024 05 19 05  12 06 40.892   -05 03 54.65  .02271 1.0249 125.1 19.9 1.74  16
2024 05 19 06  12 06 02.578   -05 30 17.68  .02255 1.0248 125.0 19.9 1.83  16
2024 05 19 07  12 05 23.654   -05 57 03.74  .02239 1.0247 125.0 19.9 1.91  16
2024 05 19 08  12 04 44.107   -06 24 13.11  .02222 1.0246 125.0 19.8 2.01  16
2024 05 19 09  12 04 03.922   -06 51 46.03  .02206 1.0245 124.9 19.8 2.10  16
2024 05 19 10  12 03 23.083   -07 19 42.78  .02191 1.0244 124.9 19.8 2.20  17